Location: Morehouse Lake Observatory
(43.3628°N, 74.6770°W)
Time: 14:51:15
(UTC-05:00)

Envisat - Pass Details

Date: 29 October 2019
Orbit: 764 x 766 km, 98.1° (Epoch: 22 November)

Event Time Altitude Azimuth Distance (km) Brightness Sun altitude
Rises 06:40:31 0° 30° (NNE) 3,239 6.5 -9.5°
Reaches altitude 10° 06:43:40 10° 50° (NE) 2,307 6.1 -9.0°
Maximum altitude 06:46:56 17° 90° (E) 1,858 6.3 -8.4°
Drops below altitude 10° 06:50:11 10° 131° (SE) 2,295 6.5 -7.8°
Sets 06:53:17 0° 151° (SSE) 3,215 6.9 -7.2°
